Weather History for Carmi, IL

Change the Weather History Date:

Monday, May 13, 2013

  Actual Average (KEVV) Record (KEVV)
Temperature  
Mean Temperature 55 °F 65 °F  
Max Temperature 69 °F 76 °F 92 °F (1962)
Min Temperature 41 °F 54 °F 36 °F (1960)
Degree Days  
Heating Degree Days 10 3  
Month to date heating degree days 52  
Since 1 July heating degree days 4507  
Cooling Degree Days 0 3  
Month to date cooling degree days 26  
Year to date cooling degree days 53  
Growing Degree Days 5 (Base 50)    
Moisture  
Dew Point 40 °F    
Average Humidity 62    
Maximum Humidity 95    
Minimum Humidity 27    
Precipitation  
Precipitation 0.00 in 0.19 in 2.26 in (1995)
Month to date precipitation 2.28  
Year to date precipitation 17.16  
Snow  
Snow 0.00 in 0.00 in 0.00 in (2002)
Month to date snowfall 0.0  
Since 1 July snowfall 11.8  
Snow Depth -    
Sea Level Pressure  
Sea Level Pressure 30.18 in    
Wind  
Wind Speed 2 mph (SW)    
Max Wind Speed 10 mph    
Max Gust Speed 17 mph    
Visibility 10 miles    
Events      
T = Trace of Precipitation, MM = Missing Value Source: NWS Daily Summary

Daily Weather History Graph

Daily Weather History Graph

Search for Another Location

Airport:

Trip Planner

Search our weather history database for the weather conditions in past years. The results will help you decide how hot, cold, wet, or windy it might be!

Date:

Astronomy

May. 13, 2013 Rise Set
Actual Time 5:43 AM CDT 7:54 PM CDT
Civil Twilight 5:14 AM CDT 8:24 PM CDT
Nautical Twilight 4:38 AM CDT 9:00 PM CDT
Astronomical Twilight 3:58 AM CDT 9:39 PM CDT
Moon 8:29 AM CDT (5/13) 11:03 PM CDT (5/13)
Length of Visible Light 15h 10m
Length of Day
14h 11m
Waxing Crescent, 12% of the Moon is Illuminated
May 13
Waxing Crescent
May 17
First Quarter
May 24
Full
May 31
Last Quarter
Jun 8
New

Hourly Weather History & Observations

Time (CDT) Temp. Windchill Dew Point Humidity Pressure Visibility Wind Dir Wind Speed Gust Speed Precip Events Conditions
12:15 AM 46.4 °F - 43.7 °F 90% 30.18 in 10.0 mi Calm Calm - N/A   Clear
12:35 AM 45.9 °F - 43.7 °F 92% 30.18 in 10.0 mi Calm Calm - N/A   Clear
12:55 AM 45.3 °F - 43.2 °F 92% 30.17 in 10.0 mi Calm Calm - N/A   Clear
1:15 AM 44.6 °F 43.1 °F 43.2 °F 95% 30.17 in 10.0 mi SW 3.5 mph - N/A   Clear
1:35 AM 44.6 °F - 43.0 °F 94% 30.17 in 10.0 mi Calm Calm - N/A   Clear
1:55 AM 44.1 °F 42.5 °F 42.8 °F 95% 30.17 in 10.0 mi SW 3.5 mph - N/A   Clear
2:15 AM 44.6 °F - 43.3 °F 95% 30.17 in 10.0 mi Calm Calm - N/A   Clear
2:35 AM 43.0 °F - 41.5 °F 95% 30.17 in 10.0 mi Calm Calm - N/A   Clear
2:55 AM 43.9 °F 42.3 °F 42.4 °F 95% 30.18 in 10.0 mi SW 3.5 mph - N/A   Clear
3:15 AM 43.3 °F - 41.9 °F 95% 30.18 in 10.0 mi Calm Calm - N/A   Clear
3:35 AM 43.2 °F 40.5 °F 41.2 °F 93% 30.18 in 10.0 mi SW 4.6 mph - N/A   Clear
3:55 AM 43.5 °F 41.9 °F 41.0 °F 91% 30.18 in 10.0 mi WSW 3.5 mph - N/A   Clear
4:15 AM 42.6 °F 40.9 °F 39.9 °F 90% 30.18 in 10.0 mi WSW 3.5 mph - N/A   Clear
4:35 AM 41.4 °F 39.4 °F 39.6 °F 93% 30.18 in 10.0 mi WSW 3.5 mph - N/A   Clear
4:55 AM 41.2 °F - 39.0 °F 92% 30.18 in 10.0 mi Calm Calm - N/A   Clear
5:15 AM 41.5 °F - 39.2 °F 91% 30.19 in 10.0 mi Calm Calm - N/A   Clear
5:35 AM 41.9 °F - 39.6 °F 91% 30.19 in 10.0 mi Calm Calm - N/A   Clear
5:55 AM 41.5 °F 39.6 °F 39.2 °F 91% 30.19 in 10.0 mi SW 3.5 mph - N/A   Clear
6:15 AM 42.4 °F - 40.1 °F 91% 30.19 in 10.0 mi Calm Calm - N/A   Clear
6:35 AM 43.7 °F - 40.6 °F 89% 30.20 in 10.0 mi Calm Calm - N/A   Clear
6:55 AM 45.1 °F - 41.9 °F 88% 30.21 in 10.0 mi Calm Calm - N/A   Clear
7:15 AM 46.8 °F - 41.5 °F 82% 30.22 in 10.0 mi Calm Calm - N/A   Clear
7:35 AM 48.6 °F - 42.3 °F 79% 30.23 in 10.0 mi Calm Calm - N/A   Clear
7:55 AM 51.3 °F - 42.8 °F 73% 30.23 in 10.0 mi Calm Calm - N/A   Clear
8:15 AM 54.0 °F - 45.0 °F 72% 30.24 in 10.0 mi Calm Calm - N/A   Clear
8:35 AM 56.5 °F - 44.6 °F 64% 30.24 in 10.0 mi WSW 5.8 mph - N/A   Clear
8:55 AM 58.1 °F - 40.8 °F 53% 30.24 in 10.0 mi WSW 9.2 mph - N/A   Clear
9:15 AM 59.4 °F - 39.2 °F 47% 30.25 in 10.0 mi WSW 8.1 mph - N/A   Clear
9:35 AM 60.6 °F - 40.3 °F 47% 30.25 in 10.0 mi WSW 6.9 mph - N/A   Clear
9:55 AM 61.7 °F - 38.5 °F 42% 30.25 in 10.0 mi WSW 6.9 mph - N/A   Clear
10:15 AM 62.1 °F - 36.9 °F 39% 30.25 in 10.0 mi WSW 6.9 mph - N/A   Clear
10:35 AM 62.4 °F - 33.8 °F 34% 30.25 in 10.0 mi Calm Calm - N/A   Clear
10:55 AM 63.0 °F - 32.7 °F 32% 30.25 in 10.0 mi North 3.5 mph - N/A   Clear
11:15 AM 63.7 °F - 32.5 °F 31% 30.25 in 10.0 mi NW 5.8 mph - N/A   Clear
11:35 AM 63.9 °F - 32.9 °F 31% 30.25 in 10.0 mi NW 4.6 mph - N/A   Clear
11:55 AM 63.7 °F - 29.7 °F 28% 30.25 in 10.0 mi Calm Calm - N/A   Clear
12:15 PM 64.8 °F - 35.1 °F 33% 30.24 in 10.0 mi SW 10.4 mph - N/A   Clear
12:35 PM 65.5 °F - 32.9 °F 30% 30.24 in 10.0 mi NW 4.6 mph - N/A   Clear
12:55 PM 66.0 °F - 31.6 °F 28% 30.23 in 10.0 mi Calm Calm - N/A   Clear
1:15 PM 66.4 °F - 33.3 °F 29% 30.22 in 10.0 mi West 5.8 mph - N/A   Clear
1:35 PM 66.9 °F - 34.5 °F 30% 30.22 in 10.0 mi WSW 8.1 mph 16.1 mph N/A   Clear
1:55 PM 67.3 °F - 33.4 °F 29% 30.21 in 10.0 mi SSW 9.2 mph 17.3 mph N/A   Clear
2:15 PM 67.3 °F - 32.9 °F 28% 30.20 in 10.0 mi NNE 3.5 mph - N/A   Clear
2:35 PM 67.8 °F - 34.7 °F 29% 30.19 in 10.0 mi West 10.4 mph - N/A   Clear
3:35 PM 68.7 °F - 33.6 °F 27% 30.17 in 10.0 mi South 6.9 mph - N/A   Clear
3:55 PM 68.7 °F - 34.3 °F 28% 30.16 in 10.0 mi West 4.6 mph - N/A   Clear
4:15 PM 68.7 °F - 33.4 °F 27% 30.15 in 10.0 mi WSW 3.5 mph - N/A   Clear
4:35 PM 69.1 °F - 35.6 °F 29% 30.15 in 10.0 mi WSW 3.5 mph - N/A   Clear
4:55 PM 68.9 °F - 33.1 °F 27% 30.15 in 10.0 mi SW 3.5 mph - N/A   Clear
5:15 PM 68.5 °F - 34.2 °F 28% 30.14 in 10.0 mi Calm Calm - N/A   Clear
5:35 PM 68.9 °F - 33.6 °F 27% 30.14 in 10.0 mi Calm Calm - N/A   Clear
5:55 PM 68.2 °F - 36.0 °F 31% 30.14 in 10.0 mi WSW 4.6 mph - N/A   Clear
6:35 PM 67.8 °F - 35.1 °F 30% 30.13 in 10.0 mi Calm Calm - N/A   Clear
7:15 PM 65.5 °F - 38.5 °F 37% 30.12 in 10.0 mi SSW 3.5 mph - N/A   Clear
7:35 PM 65.3 °F - 36.0 °F 34% 30.13 in 10.0 mi Calm Calm - N/A   Clear
7:55 PM 63.9 °F - 52.0 °F 65% 30.13 in 10.0 mi Calm Calm - N/A   Clear
8:15 PM 60.3 °F - 46.8 °F 61% 30.14 in 10.0 mi ESE 3.5 mph - N/A   Clear
8:35 PM 59.0 °F - 46.2 °F 63% 30.13 in 10.0 mi ESE 4.6 mph - N/A   Clear
8:55 PM 56.5 °F - 46.9 °F 70% 30.13 in 10.0 mi ESE 3.5 mph - N/A   Clear
9:15 PM 57.9 °F - 48.6 °F 71% 30.14 in 10.0 mi Calm Calm - N/A   Clear
9:35 PM 57.0 °F - 48.2 °F 72% 30.14 in 10.0 mi SSE 4.6 mph - N/A   Clear
9:55 PM 54.5 °F - 47.8 °F 78% 30.14 in 10.0 mi SSE 5.8 mph - N/A   Clear
10:15 PM 54.7 °F - 49.1 °F 81% 30.14 in 10.0 mi South 3.5 mph - N/A   Clear
10:35 PM 55.2 °F - 47.3 °F 75% 30.13 in 10.0 mi SSE 5.8 mph - N/A   Clear
10:55 PM 55.6 °F - 49.1 °F 79% 30.13 in 10.0 mi SSE 4.6 mph - N/A   Clear
11:15 PM 54.7 °F - 46.6 °F 74% 30.13 in 10.0 mi SSE 5.8 mph - N/A   Clear
11:35 PM 53.1 °F - 46.0 °F 77% 30.12 in 10.0 mi SSE 6.9 mph - N/A   Clear
11:55 PM 54.0 °F - 45.5 °F 73% 30.12 in 10.0 mi SSE 4.6 mph - N/A   Clear